| time (UTC) | temp F | wind direction | speed MPH | gust MPH | rain 1hr in | rain 24hr in | rain mn in | humidity % | barometer mb |
| 20260831030730 | 0 | 0 | 0.0 | 0.0 | 0.00 | 0.00 | 0.00 | 100 | |
| 20260831025729 | 70 | 236 | 0.0 | 0.0 | 0.00 | 0.00 | 0.00 | 71 | 1019.8 |
| 20260831024731 | 0 | 0 | 0.0 | 0.0 | 0.00 | 0.00 | 0.00 | 100 | |
| 20260831023730 | 70 | 270 | 0.0 | 0.0 | 0.00 | 0.00 | 0.00 | 70 | 1020.0 |
| 20260831022729 | 0 | 0 | 0.0 | 0.0 | 0.00 | 0.00 | 0.00 | 100 | |
| 20260831021729 | 0 | 0 | 0.0 | 0.0 | 0.00 | 0.00 | 0.00 | 100 | |
| 20260831015730 | 0 | 0 | 0.0 | 0.0 | 0.00 | 0.00 | 0.00 | 100 | |
| 20260831014828 | 0 | 0 | 0.0 | 0.0 | 0.00 | 0.00 | 0.00 | 100 | |
| 20260831012930 | 0 | 0 | 0.0 | 0.0 | 0.00 | 0.00 | 0.00 | 100 | |
| 20260831012028 | 0 | 0 | 0.0 | 0.0 | 0.00 | 0.00 | 0.00 | 100 | |
| 20260831011030 | 0 | 0 | 0.0 | 0.0 | 0.00 | 0.00 | 0.00 | 100 | |
| 20260831010029 | 72 | 225 | 1.0 | 1.0 | 0.00 | 0.00 | 0.00 | 66 | 1019.5 |
| 20260831005031 | 0 | 0 | 0.0 | 0.0 | 0.00 | 0.00 | 0.00 | 100 | |
| 20260831003029 | 0 | 0 | 0.0 | 0.0 | 0.00 | 0.00 | 0.00 | 100 | |
| 20260831002028 | 0 | 0 | 0.0 | 0.0 | 0.00 | 0.00 | 0.00 | 100 | |
| 20260831001031 | 73 | 225 | 1.0 | 1.0 | 0.00 | 0.00 | 0.00 | 64 | 1018.8 |
| 20260831000128 | 73 | 45 | 1.0 | 1.0 | 0.00 | 0.00 | 0.00 | 64 | 1018.8 |
| 20260830235129 | 0 | 0 | 0.0 | 0.0 | 0.00 | 0.00 | 0.00 | 100 | |
| 20260830234218 | 73 | 225 | 2.0 | 2.0 | 0.00 | 0.00 | 0.00 | 63 | 1018.7 |
| 20260830233234 | 73 | 225 | 3.0 | 3.0 | 0.00 | 0.00 | 0.00 | 63 | 1018.6 |
| 20260830232218 | 0 | 0 | 0.0 | 0.0 | 0.00 | 0.00 | 0.00 | 100 | |
| 20260830231234 | 0 | 0 | 0.0 | 0.0 | 0.00 | 0.00 | 0.00 | 100 | |
| 20260830230219 | 0 | 0 | 0.0 | 0.0 | 0.00 | 0.00 | 0.00 | 100 | |
| 20260830225218 | 74 | 112 | 5.0 | 5.0 | 0.00 | 0.00 | 0.00 | 62 | 1018.9 |
| 20260830224218 | 74 | 191 | 2.0 | 5.0 | 0.00 | 0.00 | 0.00 | 61 | 1019.0 |
| 20260830223218 | 0 | 0 | 0.0 | 0.0 | 0.00 | 0.00 | 0.00 | 100 | |
| 20260830222233 | 0 | 0 | 0.0 | 0.0 | 0.00 | 0.00 | 0.00 | 100 | |
| 20260830221219 | 0 | 0 | 0.0 | 0.0 | 0.00 | 0.00 | 0.00 | 100 | |
| 20260830220216 | 0 | 0 | 0.0 | 0.0 | 0.00 | 0.00 | 0.00 | 100 | |
| 20260830215217 | 0 | 0 | 0.0 | 0.0 | 0.00 | 0.00 | 0.00 | 100 | |
| 20260830214220 | 0 | 0 | 0.0 | 0.0 | 0.00 | 0.00 | 0.00 | 100 | |
| 20260830212319 | 0 | 0 | 0.0 | 0.0 | 0.00 | 0.00 | 0.00 | 100 | |
| 20260830210317 | 0 | 0 | 0.0 | 0.0 | 0.00 | 0.00 | 0.00 | 100 | |
| 20260830205416 | 0 | 0 | 0.0 | 0.0 | 0.00 | 0.00 | 0.00 | 100 | |
| 20260830201417 | 75 | 225 | 0.0 | 0.0 | 0.00 | 0.00 | 0.00 | 56 | 1019.6 |
| 20260830200416 | 0 | 0 | 0.0 | 0.0 | 0.00 | 0.00 | 0.00 | 100 | |
| 20260830194516 | 76 | 225 | 1.0 | 1.0 | 0.00 | 0.00 | 0.00 | 55 | 1019.8 |
| 20260830193516 | 76 | 202 | 3.0 | 3.0 | 0.00 | 0.00 | 0.00 | 55 | 1019.9 |
| 20260830192527 | 77 | 270 | 1.0 | 1.0 | 0.00 | 0.00 | 0.00 | 55 | 1020.3 |
| 20260830191525 | 77 | 173 | 2.0 | 4.0 | 0.00 | 0.00 | 0.00 | 56 | 1020.4 |
| 20260830190527 | 77 | 101 | 0.0 | 0.0 | 0.00 | 0.00 | 0.00 | 55 | 1020.6 |
| 20260830185625 | 77 | 221 | 0.0 | 3.0 | 0.00 | 0.00 | 0.00 | 56 | 1020.6 |
| 20260830184628 | 77 | 197 | 2.0 | 2.0 | 0.00 | 0.00 | 0.00 | 55 | 1020.6 |
| 20260830183626 | 77 | 292 | 3.0 | 3.0 | 0.00 | 0.00 | 0.00 | 55 | 1020.7 |
| 20260830182626 | 77 | 247 | 3.0 | 3.0 | 0.00 | 0.00 | 0.00 | 55 | 1020.8 |
| 20260830181724 | 77 | 236 | 2.0 | 5.0 | 0.00 | 0.00 | 0.00 | 55 | 1020.8 |
| 20260830180727 | 78 | 225 | 0.0 | 0.0 | 0.00 | 0.00 | 0.00 | 56 | 1020.7 |
| 20260830175725 | 78 | 67 | 2.0 | 2.0 | 0.00 | 0.00 | 0.00 | 56 | 1020.8 |
| 20260830174726 | 78 | 220 | 1.0 | 1.0 | 0.00 | 0.00 | 0.00 | 56 | 1020.9 |
| 20260830173726 | 78 | 247 | 3.0 | 3.0 | 0.00 | 0.00 | 0.00 | 57 | 1021.0 |
| 20260830172727 | 79 | 168 | 4.0 | 5.0 | 0.00 | 0.00 | 0.00 | 57 | 1021.2 |
| 20260830171741 | 79 | 255 | 0.0 | 0.0 | 0.00 | 0.00 | 0.00 | 59 | 1021.2 |
| 20260830170726 | 79 | 25 | 2.0 | 3.0 | 0.00 | 0.00 | 0.00 | 58 | 1021.1 |
| 20260830164827 | 80 | 212 | 2.0 | 4.0 | 0.00 | 0.00 | 0.00 | 59 | 1021.3 |
| 20260830162924 | 78 | 270 | 5.0 | 5.0 | 0.00 | 0.00 | 0.00 | 61 | 1021.8 |
| 20260830161925 | 0 | 0 | 0.0 | 0.0 | 0.00 | 0.00 | 0.00 | 100 | |
| 20260830161025 | 0 | 0 | 0.0 | 0.0 | 0.00 | 0.00 | 0.00 | 100 | |
| 20260830160925 | 0 | 0 | 0.0 | 0.0 | 0.00 | 0.00 | 0.00 | 100 | |
| 20260830155925 | 78 | 225 | 3.0 | 3.0 | 0.00 | 0.00 | 0.00 | 63 | 1021.8 |
| 20260830154925 | 78 | 261 | 3.0 | 4.0 | 0.00 | 0.00 | 0.00 | 65 | 1021.8 |
| 20260830153926 | 78 | 180 | 0.0 | 0.0 | 0.00 | 0.00 | 0.00 | 66 | 1021.8 |
| 20260830152926 | 78 | 202 | 0.0 | 0.0 | 0.00 | 0.00 | 0.00 | 66 | 1022.0 |
| 20260830152025 | 79 | 219 | 4.0 | 6.0 | 0.00 | 0.00 | 0.00 | 67 | 1022.0 |
| 20260830151027 | 79 | 206 | 3.0 | 6.0 | 0.00 | 0.00 | 0.00 | 69 | 1022.1 |
| 20260830150025 | 79 | 225 | 2.0 | 3.0 | 0.00 | 0.00 | 0.00 | 71 | 1022.4 |
| 20260830145125 | 78 | 180 | 2.0 | 2.0 | 0.00 | 0.00 | 0.00 | 72 | 1022.4 |
| 20260830144141 | 78 | 281 | 1.0 | 3.0 | 0.00 | 0.00 | 0.00 | 73 | 1022.3 |
| 20260830143127 | 77 | 261 | 2.0 | 4.0 | 0.00 | 0.00 | 0.00 | 75 | 1022.3 |
| 20260830142125 | 77 | 222 | 2.0 | 3.0 | 0.00 | 0.00 | 0.00 | 77 | 1022.4 |
| 20260830141128 | 76 | 225 | 2.0 | 2.0 | 0.00 | 0.00 | 0.00 | 78 | 1022.4 |
| 20260830140224 | 76 | 229 | 3.0 | 5.0 | 0.00 | 0.00 | 0.00 | 80 | 1022.4 |
| 20260830140125 | 76 | 191 | 3.0 | 3.0 | 0.00 | 0.00 | 0.00 | 79 | 1022.4 |
| 20260830134224 | 75 | 238 | 3.0 | 5.0 | 0.00 | 0.00 | 0.00 | 82 | 1022.5 |
| 20260830133223 | 74 | 255 | 1.0 | 1.0 | 0.00 | 0.00 | 0.00 | 83 | 1022.7 |
| 20260830132225 | 0 | 0 | 0.0 | 0.0 | 0.00 | 0.00 | 0.00 | 100 | |
| 20260830131324 | 0 | 0 | 0.0 | 0.0 | 0.00 | 0.00 | 0.00 | 100 | |
| 20260830130424 | 70 | 225 | 4.0 | 4.0 | 0.00 | 0.00 | 0.00 | 86 | 1022.9 |
| 20260830125426 | 0 | 0 | 0.0 | 0.0 | 0.00 | 0.00 | 0.00 | 100 | |
| 20260830124426 | 0 | 0 | 0.0 | 0.0 | 0.00 | 0.00 | 0.00 | 100 | |
| 20260830122427 | 64 | 180 | 0.0 | 0.0 | 0.00 | 0.00 | 0.00 | 88 | 1023.3 |
| 20260830121526 | 0 | 0 | 0.0 | 0.0 | 0.00 | 0.00 | 0.00 | 100 | |
| 20260830120545 | 0 | 0 | 0.0 | 0.0 | 0.00 | 0.00 | 0.00 | 100 | |
| 20260830115627 | 0 | 0 | 0.0 | 0.0 | 0.00 | 0.00 | 0.00 | 100 | |
| 20260830114628 | 0 | 0 | 0.0 | 0.0 | 0.00 | 0.00 | 0.00 | 100 | |
| 20260830113727 | 0 | 0 | 0.0 | 0.0 | 0.00 | 0.00 | 0.00 | 100 | |
| 20260830112728 | 0 | 0 | 0.0 | 0.0 | 0.00 | 0.00 | 0.00 | 100 | |
| 20260830111728 | 0 | 0 | 0.0 | 0.0 | 0.00 | 0.00 | 0.00 | 100 | |
| 20260830110728 | 0 | 0 | 0.0 | 0.0 | 0.00 | 0.00 | 0.00 | 100 | |
| 20260830104729 | 0 | 0 | 0.0 | 0.0 | 0.00 | 0.00 | 0.00 | 100 | |
| 20260830103829 | 0 | 0 | 0.0 | 0.0 | 0.00 | 0.00 | 0.00 | 100 | |
| 20260830102927 | 0 | 0 | 0.0 | 0.0 | 0.00 | 0.00 | 0.00 | 100 | |
| 20260830101928 | 0 | 0 | 0.0 | 0.0 | 0.00 | 0.00 | 0.00 | 100 | |
| 20260830100927 | 0 | 0 | 0.0 | 0.0 | 0.00 | 0.00 | 0.00 | 100 | |
| 20260830095928 | 0 | 0 | 0.0 | 0.0 | 0.00 | 0.00 | 0.00 | 100 | |
| 20260830093929 | 0 | 0 | 0.0 | 0.0 | 0.00 | 0.00 | 0.00 | 100 | |
| 20260830091927 | 0 | 0 | 0.0 | 0.0 | 0.00 | 0.00 | 0.00 | 100 | |
| 20260830090929 | 0 | 0 | 0.0 | 0.0 | 0.00 | 0.00 | 0.00 | 100 | |
| 20260830085927 | 0 | 0 | 0.0 | 0.0 | 0.00 | 0.00 | 0.00 | 100 | |
| 20260830084926 | 0 | 0 | 0.0 | 0.0 | 0.00 | 0.00 | 0.00 | 100 | |
| 20260830083929 | 0 | 0 | 0.0 | 0.0 | 0.00 | 0.00 | 0.00 | 100 | |
| 20260830082929 | 0 | 0 | 0.0 | 0.0 | 0.00 | 0.00 | 0.00 | 100 | |
| 20260830081928 | 0 | 0 | 0.0 | 0.0 | 0.00 | 0.00 | 0.00 | 100 | |
| 20260830080928 | 0 | 0 | 0.0 | 0.0 | 0.00 | 0.00 | 0.00 | 100 | |
| 20260830075926 | 0 | 0 | 0.0 | 0.0 | 0.00 | 0.00 | 0.00 | 100 | |
| 20260830074928 | 0 | 0 | 0.0 | 0.0 | 0.00 | 0.00 | 0.00 | 100 | |
| 20260830073927 | 0 | 0 | 0.0 | 0.0 | 0.00 | 0.00 | 0.00 | 100 | |
| 20260830071928 | 0 | 0 | 0.0 | 0.0 | 0.00 | 0.00 | 0.00 | 100 | |
| 20260830065928 | 0 | 0 | 0.0 | 0.0 | 0.00 | 0.00 | 0.00 | 100 | |
| 20260830064927 | 0 | 0 | 0.0 | 0.0 | 0.00 | 0.00 | 0.00 | 100 | |
| 20260830063945 | 0 | 0 | 0.0 | 0.0 | 0.00 | 0.00 | 0.00 | 100 | |
| 20260830062928 | 0 | 0 | 0.0 | 0.0 | 0.00 | 0.00 | 0.00 | 100 | |
| 20260830062026 | 0 | 0 | 0.0 | 0.0 | 0.00 | 0.00 | 0.00 | 100 | |
| 20260830060027 | 0 | 0 | 0.0 | 0.0 | 0.00 | 0.00 | 0.00 | 100 | |
| 20260830054029 | 0 | 0 | 0.0 | 0.0 | 0.00 | 0.00 | 0.00 | 100 | |
| 20260830053126 | 0 | 0 | 0.0 | 0.0 | 0.00 | 0.00 | 0.00 | 100 | |
| 20260830052127 | 0 | 0 | 0.0 | 0.0 | 0.00 | 0.00 | 0.00 | 100 | |
| 20260830051128 | 0 | 0 | 0.0 | 0.0 | 0.00 | 0.00 | 0.00 | 100 | |
| 20260830050127 | 0 | 0 | 0.0 | 0.0 | 0.00 | 0.00 | 0.00 | 100 | |
| 20260830045226 | 0 | 0 | 0.0 | 0.0 | 0.00 | 0.00 | 0.00 | 100 | |
| 20260830044228 | 0 | 0 | 0.0 | 0.0 | 0.00 | 0.00 | 0.00 | 100 | |
| 20260830042226 | 0 | 0 | 0.0 | 0.0 | 0.00 | 0.00 | 0.00 | 100 | |
| 20260830041228 | 0 | 0 | 0.0 | 0.0 | 0.00 | 0.00 | 0.00 | 100 | |
| 20260830040326 | 0 | 0 | 0.0 | 0.0 | 0.00 | 0.00 | 0.00 | 100 | |
| 20260830035328 | 0 | 0 | 0.0 | 0.0 | 0.00 | 0.00 | 0.00 | 100 | |
| 20260830034330 | 0 | 0 | 0.0 | 0.0 | 0.00 | 0.00 | 0.00 | 100 | |
| 20260830033328 | 0 | 0 | 0.0 | 0.0 | 0.00 | 0.00 | 0.00 | 100 | |
| 20260830032329 | 0 | 0 | 0.0 | 0.0 | 0.00 | 0.00 | 0.00 | 100 | |
| 20260830031328 | 0 | 0 | 0.0 | 0.0 | 0.00 | 0.00 | 0.00 | 100 |